FW7194 Weather Reports


Display with metric or nautical units.
time (UTC)temp
F
wind
direction
speed
MPH
gust
MPH
rain 1hr
in
rain 24hr
in
rain mn
in
humidity
%
barometer
mb
20260901212011 85 180 3.0 7.0 0.00 0.00 0.00 78 1017.8
20260901211506 85 226 1.0 7.0 0.00 0.00 0.00 78 1017.8
20260901211002 85 115 3.0 7.0 0.00 0.00 0.00 77 1017.6
20260901210457 85 172 5.0 8.0 0.00 0.00 0.00 77 1017.6
20260901205953 85 189 1.0 5.0 0.00 0.00 0.00 77 1017.7
20260901205449 85 230 3.0 6.0 0.00 0.00 0.00 78 1017.4
20260901204943 86 102 5.0 7.0 0.00 0.00 0.00 77 1017.7
20260901204440 86 121 2.0 6.0 0.00 0.00 0.00 78 1017.6
20260901203939 86 127 7.0 8.0 0.00 0.00 0.00 78 1017.5
20260901203434 86 194 4.0 8.0 0.00 0.00 0.00 78 1017.3
20260901202929 86 154 3.0 7.0 0.00 0.00 0.00 78 1017.6
20260901202423 86 212 5.0 6.0 0.00 0.00 0.00 78 1017.5
20260901201920 86 161 3.0 5.0 0.00 0.00 0.00 78 1017.7
20260901201420 86 155 2.0 9.0 0.00 0.00 0.00 78 1017.7
20260901200914 86 183 4.0 8.0 0.00 0.00 0.00 78 1017.4
20260901200409 86 230 2.0 6.0 0.00 0.00 0.00 78 1017.6
20260901195908 86 221 0.0 7.0 0.00 0.00 0.00 78 1017.6
20260901195408 86 191 4.0 7.0 0.00 0.00 0.00 78 1017.6
20260901194902 86 194 2.0 6.0 0.00 0.00 0.00 78 1017.7
20260901194356 86 154 4.0 7.0 0.00 0.00 0.00 78 1017.8
20260901193853 87 213 3.0 5.0 0.00 0.00 0.00 78 1017.6
20260901193352 87 188 4.0 6.0 0.00 0.00 0.00 78 1017.6
20260901192852 87 197 4.0 6.0 0.00 0.00 0.00 78 1017.7
20260901192348 87 183 0.0 8.0 0.00 0.00 0.00 78 1017.9
20260901191843 87 129 5.0 8.0 0.00 0.00 0.00 78 1017.8
20260901191339 87 166 3.0 8.0 0.00 0.00 0.00 78 1018.1
20260901190835 87 219 3.0 7.0 0.00 0.00 0.00 78 1017.9
20260901190334 87 151 7.0 10.0 0.00 0.00 0.00 78 1018.1
20260901185833 87 191 1.0 6.0 0.00 0.00 0.00 78 1018.2
20260901185332 87 209 4.0 6.0 0.00 0.00 0.00 78 1018.3
20260901184827 88 161 2.0 7.0 0.00 0.00 0.00 78 1018.2
20260901184323 88 184 3.0 7.0 0.00 0.00 0.00 77 1018.2
20260901183819 88 196 5.0 8.0 0.00 0.00 0.00 77 1018.1
20260901183318 88 119 4.0 7.0 0.00 0.00 0.00 77 1018.5
20260901182815 88 230 2.0 6.0 0.00 0.00 0.00 77 1018.5
20260901182314 88 209 6.0 11.0 0.00 0.00 0.00 77 1018.3
20260901181809 88 201 2.0 6.0 0.00 0.00 0.00 77 1018.4
20260901181303 88 207 4.0 9.0 0.00 0.00 0.00 77 1018.4
20260901180757 88 197 2.0 8.0 0.00 0.00 0.00 76 1018.4
20260901180256 89 81 2.0 6.0 0.00 0.00 0.00 76 1018.5
20260901175755 89 224 1.0 5.0 0.00 0.00 0.00 76 1018.4
20260901175250 89 145 5.0 6.0 0.00 0.00 0.00 76 1018.8
20260901174745 89 187 4.0 8.0 0.00 0.00 0.00 76 1018.7
20260901174241 89 218 2.0 7.0 0.00 0.00 0.00 76 1018.7
20260901173736 89 182 7.0 9.0 0.00 0.00 0.00 76 1018.6
20260901173231 89 189 1.0 5.0 0.00 0.00 0.00 76 1018.6
20260901172728 89 181 4.0 5.0 0.00 0.00 0.00 75 1018.8
20260901172226 89 129 5.0 6.0 0.00 0.00 0.00 75 1018.8
20260901171725 89 218 5.0 7.0 0.00 0.00 0.00 75 1018.9
20260901171224 89 163 1.0 3.0 0.00 0.00 0.00 75 1019.0
20260901170723 89 201 3.0 6.0 0.00 0.00 0.00 75 1019.0
20260901170218 89 111 3.0 6.0 0.00 0.00 0.00 74 1019.0
20260901165717 89 178 1.0 5.0 0.00 0.00 0.00 73 1019.0
20260901165212 89 102 3.0 5.0 0.00 0.00 0.00 73 1019.0
20260901164708 89 150 2.0 2.0 0.00 0.00 0.00 73 1018.9
20260901164203 89 15 3.0 5.0 0.00 0.00 0.00 74 1019.2
20260901163658 89 183 1.0 2.0 0.00 0.00 0.00 74 1019.3
20260901163157 89 143 2.0 5.0 0.00 0.00 0.00 74 1019.2
20260901162653 89 184 3.0 3.0 0.00 0.00 0.00 74 1019.3
20260901162152 89 211 2.0 2.0 0.00 0.00 0.00 75 1019.2
20260901161651 88 145 3.0 5.0 0.00 0.00 0.00 75 1019.4
20260901161151 88 199 0.0 1.0 0.00 0.00 0.00 75 1019.4
20260901160648 88 188 0.0 5.0 0.00 0.00 0.00 74 1019.3
20260901160142 88 111 2.0 5.0 0.00 0.00 0.00 74 1019.6
20260901155641 88 129 3.0 5.0 0.00 0.00 0.00 73 1019.3
20260901155137 88 130 2.0 6.0 0.00 0.00 0.00 74 1019.2
20260901154632 88 30 5.0 6.0 0.00 0.00 0.00 74 1019.5
20260901154126 88 23 4.0 5.0 0.00 0.00 0.00 75 1019.4
20260901153622 88 95 1.0 3.0 0.00 0.00 0.00 75 1019.6
20260901153121 87 90 2.0 5.0 0.00 0.00 0.00 77 1019.6
20260901152617 87 175 1.0 3.0 0.00 0.00 0.00 77 1019.7
20260901152115 87 128 2.0 3.0 0.00 0.00 0.00 79 1019.4
20260901151611 87 29 2.0 3.0 0.00 0.00 0.00 79 1019.6
20260901151110 87 7 1.0 3.0 0.00 0.00 0.00 80 1019.5
20260901150609 87 94 2.0 3.0 0.00 0.00 0.00 81 1019.7
20260901150108 86 161 0.0 2.0 0.00 0.00 0.00 81 1019.7
20260901145601 86 124 1.0 6.0 0.00 0.00 0.00 81 1019.7
20260901145100 86 122 2.0 3.0 0.00 0.00 0.00 82 1019.6
20260901144555 86 44 3.0 5.0 0.00 0.00 0.00 83 1019.9
20260901144045 85 113 1.0 6.0 0.00 0.00 0.00 84 1019.6
20260901143541 84 354 2.0 3.0 0.00 0.00 0.00 85 1019.6
20260901143037 84 163 0.0 2.0 0.00 0.00 0.00 86 1019.8
20260901142532 84 107 1.0 3.0 0.00 0.00 0.00 87 1019.7
20260901142026 84 341 3.0 7.0 0.00 0.00 0.00 88 1019.6
20260901141526 84 154 0.0 1.0 0.00 0.00 0.00 90 1019.5
20260901141021 83 131 0.0 2.0 0.00 0.00 0.00 90 1019.5
20260901140520 82 128 0.0 2.0 0.00 0.00 0.00 91 1019.7
20260901140015 82 128 0.0 1.0 0.00 0.00 0.00 92 1019.3
20260901135514 82 159 1.0 1.0 0.00 0.00 0.00 93 1019.5
20260901135009 81 117 0.0 1.0 0.00 0.00 0.00 94 1019.4
20260901134505 80 247 0.0 1.0 0.00 0.00 0.00 94 1019.4
20260901134000 80 104 1.0 3.0 0.00 0.00 0.00 94 1019.5
20260901133459 80 354 0.0 7.0 0.00 0.00 0.00 95 1019.5
20260901132958 80 19 4.0 6.0 0.00 0.00 0.00 96 1019.6
20260901132457 80 141 0.0 0.0 0.00 0.00 0.00 96 1019.6
20260901131956 79 134 0.0 1.0 0.00 0.00 0.00 96 1019.7
20260901131451 79 92 2.0 2.0 0.00 0.00 0.00 97 1019.6
20260901130947 78 134 0.0 1.0 0.00 0.00 0.00 97 1019.8
20260901130441 77 88 2.0 3.0 0.00 0.00 0.00 96 1019.6
20260901125938 77 107 0.0 3.0 0.00 0.00 0.00 96 1019.5
20260901125438 77 106 0.0 2.0 0.00 0.00 0.00 96 1019.5
20260901124933 77 90 0.0 1.0 0.00 0.00 0.00 96 1019.6
20260901124428 77 120 0.0 0.0 0.00 0.00 0.00 96 1019.3
20260901123923 77 119 0.0 1.0 0.00 0.00 0.00 96 1019.4
20260901123418 77 232 0.0 1.0 0.00 0.00 0.00 96 1019.4
20260901122916 77 160 0.0 0.0 0.00 0.00 0.00 96 1019.4
20260901122411 76 148 0.0 0.0 0.00 0.00 0.00 96 1019.3
20260901121910 76 118 0.0 0.0 0.00 0.00 0.00 96 1019.2
20260901121405 76 119 0.0 0.0 0.00 0.00 0.00 96 1019.3
20260901120901 76 62 1.0 2.0 0.00 0.00 0.00 96 1019.3
20260901120400 76 24 0.0 1.0 0.00 0.00 0.00 96 1019.1
20260901115856 76 15 1.0 2.0 0.00 0.00 0.00 96 1018.9
20260901115355 76 27 1.0 2.0 0.00 0.00 0.00 96 1018.9
20260901114854 76 101 0.0 0.0 0.00 0.00 0.00 96 1018.9
20260901114349 76 53 0.0 0.0 0.00 0.00 0.00 96 1018.9
20260901113847 76 51 0.0 0.0 0.00 0.00 0.00 96 1018.7
20260901113346 76 46 0.0 0.0 0.00 0.00 0.00 96 1018.6
20260901112841 75 29 0.0 0.0 0.00 0.00 0.00 96 1018.4
20260901112336 75 28 0.0 0.0 0.00 0.00 0.00 96 1018.3
20260901111831 75 28 0.0 0.0 0.00 0.00 0.00 96 1018.6
20260901111329 75 28 0.0 0.0 0.00 0.00 0.00 96 1018.3
20260901110828 75 30 0.0 0.0 0.00 0.00 0.00 96 1018.3
20260901110324 75 30 0.0 1.0 0.00 0.00 0.00 96 1018.1
20260901105820 75 34 0.0 0.0 0.00 0.00 0.00 96 1018.2
20260901105320 75 34 0.0 0.0 0.00 0.00 0.00 96 1018.3
20260901104817 75 34 0.0 0.0 0.00 0.00 0.00 96 1018.3
20260901104312 75 35 0.0 0.0 0.00 0.00 0.00 96 1018.0
20260901103807 75 35 0.0 0.0 0.00 0.00 0.00 96 1018.2
20260901103306 75 35 0.0 0.0 0.00 0.00 0.00 96 1018.2
20260901102801 75 35 0.0 0.0 0.00 0.00 0.00 95 1018.1
20260901102256 76 34 0.0 1.0 0.00 0.00 0.00 95 1018.2
20260901101752 76 31 0.0 0.0 0.00 0.00 0.00 95 1017.9
20260901101251 76 30 0.0 0.0 0.00 0.00 0.00 95 1018.0
20260901100751 76 31 0.0 0.0 0.00 0.00 0.00 95 1017.9
20260901100246 76 31 0.0 0.0 0.00 0.00 0.00 95 1017.9
20260901095744 76 30 0.0 0.0 0.00 0.00 0.00 95 1017.9
20260901095242 76 31 0.0 0.0 0.00 0.00 0.00 95 1017.8
20260901094737 76 31 0.0 0.0 0.00 0.00 0.00 95 1017.9
20260901094232 76 34 1.0 1.0 0.00 0.00 0.00 95 1018.0
20260901093727 76 74 0.0 1.0 0.00 0.00 0.00 95 1017.8
20260901093225 76 44 0.0 0.0 0.00 0.00 0.00 95 1017.8
20260901092722 76 46 0.0 0.0 0.00 0.00 0.00 95 1018.0
20260901092218 76 223 0.0 0.0 0.00 0.00 0.00 95 1017.7
20260901091713 76 247 0.0 0.0 0.00 0.00 0.00 95 1018.0
20260901091208 76 339 0.0 1.0 0.00 0.00 0.00 95 1017.7
20260901090702 76 239 0.0 0.0 0.00 0.00 0.00 95 1017.9
20260901090158 76 224 0.0 0.0 0.00 0.00 0.00 95 1018.0
20260901085654 76 236 0.0 0.0 0.00 0.00 0.00 95 1017.9
20260901085149 76 233 0.0 0.0 0.00 0.00 0.00 95 1018.0
20260901084645 76 228 0.0 0.0 0.00 0.00 0.00 95 1018.0
20260901084142 76 310 0.0 0.0 0.00 0.00 0.00 95 1017.8
20260901083641 76 228 0.0 0.0 0.00 0.00 0.00 95 1017.9
20260901083140 76 232 0.0 0.0 0.00 0.00 0.00 95 1018.0
20260901082634 76 232 0.0 0.0 0.00 0.00 0.00 95 1017.9
20260901082129 76 234 0.0 0.0 0.00 0.00 0.00 95 1018.0
20260901081624 76 235 0.0 0.0 0.00 0.00 0.00 95 1018.2
20260901081119 76 289 0.0 0.0 0.00 0.00 0.00 95 1017.7
20260901080614 76 224 0.0 0.0 0.00 0.00 0.00 95 1018.0
20260901080113 75 232 0.0 0.0 0.00 0.00 0.00 95 1017.9
20260901075609 76 238 0.0 0.0 0.00 0.00 0.00 95 1017.9
20260901075108 75 226 0.0 0.0 0.00 0.00 0.00 95 1017.9
20260901074607 75 230 0.0 0.0 0.00 0.00 0.00 94 1018.0
20260901074103 75 256 0.0 0.0 0.00 0.00 0.00 94 1018.0
20260901073559 75 251 0.0 0.0 0.00 0.00 0.00 94 1017.8
20260901073053 75 207 0.0 0.0 0.00 0.00 0.00 94 1017.8
20260901072549 76 224 0.0 0.0 0.00 0.00 0.00 94 1017.9
20260901072043 76 223 0.0 0.0 0.00 0.00 0.00 94 1018.1
20260901071538 76 206 0.0 0.0 0.00 0.00 0.00 94 1018.0
20260901071036 76 221 0.0 0.0 0.00 0.00 0.00 94 1017.8
20260901070531 76 222 0.0 0.0 0.00 0.00 0.00 94 1017.9
20260901070026 76 221 0.0 0.0 0.00 0.00 0.00 94 1018.0
20260901065521 76 222 0.0 0.0 0.00 0.00 0.00 94 1017.8
20260901065016 76 222 0.0 0.0 0.00 0.00 0.00 94 1018.3
20260901064512 76 222 0.0 0.0 0.00 0.00 0.00 94 1018.2
20260901064009 76 220 0.0 0.0 0.00 0.00 0.00 94 1018.3
20260901063506 76 220 0.0 0.0 0.00 0.00 0.00 94 1018.3
20260901063001 76 205 0.0 0.0 0.00 0.00 0.00 94 1018.5
20260901062457 76 207 0.0 0.0 0.00 0.00 0.00 94 1018.5
20260901061952 76 224 0.0 0.0 0.00 0.00 0.00 94 1018.6
20260901061448 76 228 0.0 0.0 0.00 0.00 0.00 94 1018.7
20260901060943 76 219 0.0 0.0 0.00 0.00 0.00 94 1018.7
20260901060438 76 218 0.0 0.0 0.00 0.00 0.00 94 1018.6
20260901055937 76 219 0.0 0.0 0.00 0.00 0.00 94 1019.0
20260901055434 76 219 0.0 0.0 0.00 0.00 0.00 94 1018.8
20260901054930 76 218 0.0 0.0 0.00 0.00 0.00 94 1018.9
20260901054427 76 205 0.0 0.0 0.00 0.00 0.00 94 1018.8
20260901053923 76 217 0.0 0.0 0.00 0.00 0.00 94 1018.8
20260901053418 76 234 0.0 0.0 0.00 0.00 0.00 93 1018.9
20260901052914 76 235 0.0 0.0 0.00 0.00 0.00 94 1018.9
20260901052409 76 235 0.0 0.0 0.00 0.00 0.00 93 1018.9
20260901051908 76 235 0.0 0.0 0.00 0.00 0.00 93 1018.8
20260901051403 76 235 0.0 0.0 0.00 0.00 0.00 93 1018.9
20260901050858 76 235 0.0 0.0 0.00 0.00 0.00 93 1018.9
20260901050354 76 236 0.0 0.0 0.00 0.00 0.00 93 1018.8
20260901045848 76 236 0.0 0.0 0.00 0.00 0.00 93 1018.7
20260901045348 76 234 0.0 0.0 0.00 0.00 0.00 93 1018.8
20260901044843 76 233 0.0 0.0 0.00 0.00 0.00 93 1018.8
20260901044339 76 233 0.0 0.0 0.00 0.00 0.00 93 1018.7
20260901043835 77 234 0.0 0.0 0.00 0.00 0.00 93 1018.8
20260901043331 76 229 0.0 0.0 0.00 0.00 0.00 93 1018.6
20260901042830 77 226 0.0 0.0 0.00 0.00 0.00 93 1018.6
20260901042325 77 263 0.0 0.0 0.00 0.00 0.00 93 1018.7
20260901041821 77 255 0.0 0.0 0.00 0.00 0.00 93 1018.8
20260901041316 77 228 0.0 0.0 0.00 0.00 0.00 92 1018.6
20260901040810 77 228 0.0 0.0 0.00 0.00 0.00 92 1018.6
20260901040309 77 230 0.0 0.0 0.00 0.00 0.00 92 1018.8
20260901035809 77 220 0.0 0.0 0.00 0.00 0.00 92 1018.6
20260901035308 77 206 0.0 0.0 0.00 0.00 0.00 92 1018.8
20260901034807 77 225 0.0 0.0 0.00 0.00 0.00 92 1018.7
20260901034302 77 225 0.0 0.0 0.00 0.00 0.00 92 1018.7
20260901033801 77 225 0.0 0.0 0.00 0.00 0.00 92 1018.7
20260901033300 77 225 0.0 0.0 0.00 0.00 0.00 92 1018.8
20260901032754 77 225 0.0 0.0 0.00 0.00 0.00 92 1018.9
20260901032253 77 226 0.0 0.0 0.00 0.00 0.00 92 1019.1
20260901031749 77 225 0.0 0.0 0.00 0.00 0.00 92 1019.1
20260901031245 77 225 0.0 0.0 0.00 0.00 0.00 92 1019.0
20260901030745 77 226 0.0 0.0 0.00 0.00 0.00 92 1019.2
20260901030240 77 224 0.0 0.0 0.00 0.00 0.00 91 1019.2
20260901025739 77 222 0.0 0.0 0.00 0.00 0.00 91 1019.2
20260901025234 77 221 0.0 0.0 0.00 0.00 0.00 91 1019.1
20260901024729 78 221 0.0 0.0 0.00 0.00 0.00 91 1019.3
20260901024228 78 221 0.0 0.0 0.00 0.00 0.00 91 1019.1
20260901023726 78 223 0.0 0.0 0.00 0.00 0.00 91 1019.4
20260901023222 78 223 0.0 0.0 0.00 0.00 0.00 91 1019.2
20260901022717 78 227 0.0 0.0 0.00 0.00 0.00 91 1019.4
20260901022212 78 227 0.0 0.0 0.00 0.00 0.00 91 1019.4
20260901021707 78 228 0.0 0.0 0.00 0.00 0.00 91 1019.1
20260901021202 78 228 0.0 0.0 0.00 0.00 0.00 90 1019.1
20260901020658 78 227 0.0 0.0 0.00 0.00 0.00 90 1019.1
20260901020153 78 227 0.0 0.0 0.00 0.00 0.00 90 1018.9
20260901015648 78 228 0.0 0.0 0.00 0.00 0.00 90 1019.0
20260901015148 78 228 0.0 0.0 0.00 0.00 0.00 90 1019.0
20260901014643 79 227 0.0 0.0 0.00 0.00 0.00 90 1019.0
20260901014139 79 228 0.0 0.0 0.00 0.00 0.00 90 1019.0
20260901013635 79 231 0.0 0.0 0.00 0.00 0.00 90 1018.8
20260901013131 79 239 0.0 0.0 0.00 0.00 0.00 90 1018.8
20260901012630 79 219 0.0 0.0 0.00 0.00 0.00 89 1018.9
20260901012125 79 218 0.0 0.0 0.00 0.00 0.00 89 1018.8
20260901011622 79 204 0.0 0.0 0.00 0.00 0.00 89 1018.7
20260901011120 79 192 0.0 0.0 0.00 0.00 0.00 89 1018.7
20260901010615 80 197 0.0 0.0 0.00 0.00 0.00 89 1019.0
20260901010114 80 177 0.0 1.0 0.00 0.00 0.00 89 1018.8
20260901005609 80 161 0.0 1.0 0.00 0.00 0.00 88 1018.7
20260901005104 80 165 1.0 1.0 0.00 0.00 0.00 88 1018.4
20260901004603 80 156 1.0 2.0 0.00 0.00 0.00 88 1018.5
20260901004059 80 155 1.0 2.0 0.00 0.00 0.00 88 1018.5
20260901003554 80 136 2.0 2.0 0.00 0.00 0.00 88 1018.4
20260901003052 80 159 0.0 3.0 0.00 0.00 0.00 88 1018.5
20260901002551 80 114 1.0 2.0 0.00 0.00 0.00 88 1018.4
20260901002047 80 125 0.0 2.0 0.00 0.00 0.00 87 1018.4
20260901001542 81 140 1.0 1.0 0.00 0.00 0.00 87 1018.3
20260901001037 81 126 1.0 5.0 0.00 0.00 0.00 87 1018.4
20260901000532 81 157 0.0 3.0 0.00 0.00 0.00 87 1018.4
20260901000028 81 132 1.0 3.0 0.00 0.00 0.00 87 1018.5
20260831235521 81 168 2.0 3.0 0.00 0.00 0.00 87 1018.3
20260831235017 81 141 2.0 5.0 0.00 0.00 0.00 87 1018.2
20260831234516 81 115 3.0 6.0 0.00 0.00 0.00 87 1018.3
20260831234013 81 105 3.0 5.0 0.00 0.00 0.00 87 1018.3
20260831233507 82 109 4.0 7.0 0.00 0.00 0.00 87 1018.3
20260831233002 82 203 1.0 3.0 0.00 0.00 0.00 86 1018.2
20260831232458 82 128 3.0 5.0 0.00 0.00 0.00 86 1018.4
20260831231953 82 134 3.0 6.0 0.00 0.00 0.00 86 1018.3
20260831231450 82 146 2.0 5.0 0.00 0.00 0.00 86 1018.2
20260831230946 82 169 3.0 5.0 0.00 0.00 0.00 86 1018.4
20260831230441 82 94 5.0 6.0 0.00 0.00 0.00 86 1018.2
20260831225940 82 109 2.0 3.0 0.00 0.00 0.00 87 1018.5
20260831225437 82 95 3.0 3.0 0.00 0.00 0.00 87 1018.2
20260831224932 83 113 2.0 5.0 0.00 0.00 0.00 87 1018.2
20260831224431 83 157 1.0 5.0 0.00 0.00 0.00 87 1018.4
20260831223926 83 162 2.0 6.0 0.00 0.00 0.00 87 1018.3
20260831223421 83 128 3.0 6.0 0.00 0.00 0.00 87 1018.4
20260831222918 83 205 2.0 5.0 0.00 0.00 0.00 87 1018.3
20260831222414 83 128 6.0 7.0 0.00 0.00 0.00 87 1018.4
20260831221908 83 203 0.0 6.0 0.00 0.00 0.00 87 1018.5
20260831221404 83 213 1.0 6.0 0.00 0.00 0.00 87 1018.2
20260831220859 83 176 2.0 7.0 0.00 0.00 0.00 87 1018.5
20260831220355 83 174 4.0 8.0 0.00 0.00 0.00 87 1018.3
20260831215850 83 204 1.0 5.0 0.00 0.00 0.00 87 1018.3
20260831215345 83 170 4.0 7.0 0.00 0.00 0.00 87 1018.3
20260831214842 83 135 3.0 6.0 0.00 0.00 0.00 87 1018.3
20260831214340 83 99 3.0 6.0 0.00 0.00 0.00 87 1018.2
20260831213839 83 159 5.0 8.0 0.00 0.00 0.00 87 1018.2
20260831213336 83 121 3.0 6.0 0.00 0.00 0.00 87 1018.3
20260831212831 83 129 3.0 5.0 0.00 0.00 0.00 87 1018.3
20260831212328 83 170 3.0 6.0 0.00 0.00 0.00 87 1018.2